Wind_Gust
17 17 16 16 16 16 16 16 16 15 15 15 15 15 15 16 16 15 15 15 15 15 15 16 15 15 16 16 16 17 12 14 16 9 4 24 15 16 11 14 5 9 8 4 1 3 2 2 3 3 2 2 5 3 6 5 7 5 7 8 8 10 5 9 6 7 3 7 10 14 6 8 5 10 4 7 15 15 13 14 10 23 20 20 21 23 24 23
18 17 17 17 17 17 17 17 17 17 16 16 15 15 15 15 14 14 15 15 15 15 15 15 15 15 16 15 15 15 12 9 15 13 29 14 12 15 16 15 10 10 11 6 6 3 2 2 3 2 4 4 2 6 2 8 6 9 6 8 16 7 13 6 5 6 6 10 6 11 2 3 2 2 3 9 2 4 17 14 14 22 22 24 22 22 20 20
18 18 17 17 17 17 17 17 16 16 16 16 16 16 16 15 15 15 15 15 14 14 15 15 15 16 16 15 14 11 13 10 9 14 21 20 22 14 17 18 13 11 14 7 6 8 7 5 2 5 3 3 4 6 2 9 7 8 10 11 14 8 7 6 6 9 7 7 11 10 14 5 3 5 4 5 5 4 16 17 10 22 23 20 19 20 20 19
18 18 18 18 18 18 17 17 16 16 16 16 16 16 15 16 15 14 14 14 15 15 15 15 15 15 16 15 12 10 6 8 7 8 7 5 19 20 16 16 10 12 5 3 9 7 4 4 4 4 4 3 7 2 6 10 9 7 8 14 10 7 6 10 9 13 13 3 7 8 10 12 6 5 4 5 4 2 3 9 23 23 26 22 20 20 18 18
19 18 18 18 18 18 18 17 16 16 16 16 16 16 16 16 15 15 14 13 13 14 14 14 15 15 15 14 11 5 7 4 3 4 5 4 14 21 17 14 11 9 7 4 7 4 4 3 3 3 4 7 3 2 7 5 9 6 11 6 9 3 4 15 11 8 6 6 5 4 5 8 5 3 5 9 6 9 12 10 10 29 29 30 25 21 19 18
19 19 18 19 18 18 18 17 16 16 16 16 16 16 16 16 15 15 15 14 14 14 14 14 14 14 15 14 7 3 1 7 6 7 3 3 12 18 18 13 12 8 4 3 5 3 7 2 4 4 5 4 4 8 9 8 4 9 9 6 9 9 8 9 7 6 5 6 3 2 4 3 5 7 4 7 8 8 5 11 16 24 26 24 24 24 20 18
19 19 18 19 19 18 18 17 17 17 16 16 16 16 16 15 15 14 15 14 14 13 14 14 13 14 12 9 1 2 3 21 7 13 9 5 10 16 15 12 11 8 5 6 3 6 2 4 5 4 4 4 4 10 10 2 3 8 15 4 11 8 13 17 16 10 5 4 11 8 3 7 4 9 3 6 8 3 16 22 22 22 23 22 25 18 20 18
19 18 19 19 19 19 19 18 18 17 16 16 16 16 15 15 15 15 15 14 13 13 13 12 11 12 8 6 2 3 2 17 19 5 9 10 11 15 16 9 11 8 8 10 8 6 6 7 7 5 5 7 6 11 3 3 2 8 12 6 10 7 13 14 14 11 7 10 13 3 7 10 8 4 5 7 5 16 20 23 23 23 21 18 20 21 18 17
19 19 19 19 19 19 19 18 18 17 17 16 16 15 15 15 15 15 15 14 13 13 13 12 11 9 6 3 2 4 13 15 6 7 11 11 11 14 17 13 7 12 8 6 6 9 7 9 4 6 5 2 4 3 5 3 12 11 16 8 7 9 9 11 9 10 9 9 5 3 9 11 6 8 10 3 6 14 21 22 23 21 21 22 18 19 19 19
19 19 19 19 19 19 19 19 18 18 17 16 15 15 15 15 14 14 14 14 13 12 12 11 10 7 4 3 1 2 8 3 5 11 10 13 12 12 7 8 11 10 9 6 6 7 11 10 7 6 2 6 4 8 1 7 10 5 4 5 10 14 11 10 13 12 8 9 6 8 2 8 4 10 6 2 9 15 20 22 20 22 23 22 19 17 15 19
20 19 19 19 19 19 19 19 18 18 17 16 16 15 16 15 14 14 14 13 12 12 11 10 9 4 2 1 4 11 10 5 2 7 11 12 13 14 11 11 12 14 8 5 11 10 3 5 4 2 4 12 2 7 3 8 3 8 7 6 9 11 9 11 4 9 3 8 9 8 7 5 2 4 18 14 11 16 23 20 20 19 21 20 17 15 11 12
21 20 20 19 19 19 19 19 18 17 17 17 16 15 15 14 14 13 13 12 12 11 10 8 4 1 2 2 6 20 6 4 6 5 11 13 12 17 10 12 14 13 13 9 6 7 12 7 5 3 8 5 5 4 6 6 2 7 3 7 12 9 10 4 9 5 7 7 5 7 1 3 3 5 15 17 15 14 20 22 19 18 17 17 15 14 14 15
21 21 20 20 19 19 19 19 18 18 17 17 16 16 15 15 14 14 12 12 10 9 8 7 5 2 2 6 22 17 7 1 6 7 3 6 2 2 8 9 13 8 11 6 8 10 11 6 4 3 9 4 5 11 6 2 7 5 2 4 9 11 11 12 5 3 5 7 7 7 14 14 9 6 16 18 19 15 17 21 18 16 17 16 16 16 14 11
22 21 20 20 19 19 18 18 18 18 17 16 16 16 15 14 14 14 13 12 12 11 10 8 2 5 3 15 17 6 10 5 5 4 6 5 2 5 4 4 5 6 4 8 8 3 4 7 8 9 5 9 10 6 7 11 6 5 8 5 4 5 14 7 5 4 4 8 9 6 13 15 3 13 18 19 23 25 21 18 17 17 16 15 14 14 15 12
22 22 21 20 20 19 18 18 17 18 17 17 16 15 13 14 14 13 13 11 10 10 8 4 2 4 3 22 12 12 13 4 7 8 10 10 7 4 5 5 7 10 11 9 8 5 6 6 4 5 10 5 4 4 9 7 8 5 7 9 11 2 15 13 7 5 11 6 6 8 8 15 9 16 18 18 19 23 23 20 20 18 17 15 14 13 14 15
23 22 22 21 20 20 19 17 17 17 16 16 16 15 16 16 14 12 11 10 8 5 6 3 7 4 4 20 10 4 7 6 10 17 9 11 8 6 6 8 1 3 3 8 11 11 6 7 8 11 7 5 7 6 7 12 10 10 4 5 9 3 10 15 4 5 13 10 3 13 16 5 5 15 18 16 21 18 23 20 19 18 18 18 15 15 14 13
24 23 22 22 21 20 20 18 17 17 16 15 15 15 15 14 12 8 7 5 3 5 5 5 5 6 5 11 10 6 7 9 5 6 6 8 8 8 6 3 5 7 4 9 4 2 4 6 6 4 9 4 4 8 4 9 7 7 4 3 6 6 7 9 15 7 8 8 6 4 11 7 2 13 16 17 21 18 20 21 20 18 17 19 14 14 14 14
24 23 22 22 22 21 20 18 16 16 16 15 12 13 15 8 5 6 3 3 4 5 6 6 5 3 26 10 9 3 5 7 8 11 13 11 10 5 4 6 4 2 1 4 5 5 5 7 7 7 4 6 3 8 10 6 9 3 5 7 14 4 3 11 11 9 3 6 11 5 8 3 4 16 17 17 12 18 21 24 24 21 18 15 15 16 16 17
25 24 23 22 22 22 21 19 17 16 14 13 14 11 5 7 2 2 2 4 4 3 6 8 7 8 9 4 7 9 7 8 4 11 9 8 6 4 2 3 4 3 3 4 9 2 4 3 10 5 7 3 4 10 13 13 8 8 3 5 6 8 11 10 13 14 10 8 5 7 13 6 5 14 13 12 11 12 9 8 13 17 15 15 16 16 17 17
25 25 23 22 22 21 21 19 17 15 13 9 8 4 3 3 3 4 2 3 10 13 13 10 16 9 15 16 13 6 7 3 8 8 5 7 10 5 4 4 2 5 6 7 6 2 4 3 8 9 11 12 7 11 13 9 5 2 3 4 9 8 13 10 9 13 8 8 4 11 6 6 10 14 15 12 11 6 9 15 13 14 15 15 15 17 17 16
25 25 24 23 22 22 20 18 14 10 7 3 8 4 7 3 6 11 7 15 13 13 14 12 20 19 22 9 7 7 11 8 4 7 10 6 7 10 6 6 3 4 6 7 8 3 5 4 11 15 15 15 9 5 4 4 1 5 5 7 8 6 8 11 7 7 8 9 5 6 8 9 13 14 11 9 11 13 17 16 15 17 16 18 17 15 15 13
26 24 25 25 24 22 21 17 14 11 5 4 4 6 7 7 5 4 5 20 9 21 18 23 9 15 14 15 12 4 4 8 12 10 4 10 7 12 5 7 6 11 2 3 3 5 2 11 16 16 14 2 3 4 4 6 5 2 9 6 2 11 8 15 6 10 8 14 3 3 9 5 5 6 15 16 17 19 20 25 26 23 19 17 16 15 13 10
27 27 25 26 24 23 22 18 12 10 7 3 5 3 9 11 3 5 5 12 24 10 18 15 10 17 22 13 10 10 6 9 14 9 12 10 5 13 8 6 6 6 3 4 9 2 7 12 22 8 7 5 3 5 3 2 2 9 4 3 7 8 4 12 12 8 13 11 4 4 10 2 11 2 6 16 25 22 21 18 15 20 25 23 23 23 21 16
27 27 26 25 25 25 23 19 9 4 6 7 4 11 9 2 3 5 2 10 17 11 13 15 17 9 15 12 14 15 9 9 7 9 6 16 15 7 8 7 3 3 7 6 8 12 15 16 4 7 6 8 8 2 3 4 12 4 4 3 4 3 6 9 8 10 6 5 9 10 13 5 7 6 12 9 8 6 13 10 4 8 7 7 9 8 15 22
28 28 27 27 26 27 26 19 4 6 6 2 10 14 15 12 6 9 6 15 10 17 5 3 12 10 12 7 7 14 6 5 11 8 12 14 10 8 9 8 6 8 7 5 5 4 15 19 6 8 5 6 7 6 9 11 13 8 8 10 8 4 6 6 2 7 16 10 10 5 9 7 9 8 9 7 6 7 8 15 18 14 9 11 15 17 12 8
27 27 27 26 27 28 25 5 3 6 5 11 12 10 6 6 4 7 10 8 13 14 7 6 12 13 16 7 10 9 5 14 13 13 15 17 13 13 6 8 12 10 5 5 9 13 13 8 3 9 10 6 8 12 7 11 10 3 11 11 7 5 2 3 4 9 5 8 5 4 9 12 10 2 2 5 12 15 7 10 8 8 10 11 14 15 15 15
26 27 26 25 23 24 13 5 3 8 6 8 3 8 14 12 4 6 12 13 10 10 7 4 7 13 14 7 13 10 7 18 5 7 10 9 14 8 11 11 5 5 7 8 9 14 4 5 4 3 5 5 6 8 9 15 12 11 6 9 7 6 4 3 8 5 7 4 7 10 10 8 6 8 4 4 10 9 7 6 6 12 10 11 11 13 11 12
29 28 26 25 22 14 8 13 13 5 11 6 10 13 15 9 2 8 14 10 15 3 3 5 11 5 5 3 12 18 11 3 11 11 14 12 10 5 13 9 14 9 5 6 7 12 2 9 2 3 4 8 14 12 8 11 14 11 4 10 8 10 8 8 9 5 3 2 9 11 6 6 7 11 7 4 8 6 13 10 12 13 13 10 11 11 10 11
29 28 26 22 22 17 5 8 4 10 7 6 12 13 15 6 8 11 9 7 9 10 11 8 12 3 3 3 11 13 9 4 4 4 5 5 9 14 14 12 10 6 3 7 14 11 8 9 8 9 7 13 10 9 15 15 7 8 7 7 8 8 8 5 6 7 4 9 7 4 4 9 11 12 12 4 2 8 16 18 20 20 19 16 12 10 10 11
30 28 25 21 16 4 4 6 15 13 8 15 15 15 6 7 10 7 9 11 10 6 5 6 7 6 5 8 10 9 10 8 5 4 7 17 9 2 5 6 9 5 8 4 5 14 10 8 8 10 14 15 11 6 11 15 14 6 8 5 6 13 6 6 11 9 11 3 8 5 5 9 9 10 7 4 4 6 6 5 9 9 16 13 11 14 15 15
31 28 22 16 10 8 3 10 17 14 10 9 12 8 7 18 11 7 4 19 9 10 4 3 8 4 7 7 9 8 8 5 4 7 5 5 3 3 3 7 10 8 7 6 8 9 10 6 5 10 7 6 3 6 4 3 3 5 4 6 8 3 13 11 9 10 11 8 8 6 4 3 10 10 10 11 10 9 11 10 15 16 18 15 10 12 13 13
29 27 22 14 11 4 10 13 3 3 6 11 8 9 11 11 8 12 18 6 12 8 6 8 3 3 6 4 6 11 17 7 6 7 10 13 9 13 10 12 13 8 6 4 15 6 6 8 6 10 6 10 7 5 8 5 8 12 10 13 13 8 10 10 8 6 7 12 3 2 3 5 7 10 11 15 8 6 3 5 13 18 11 11 12 13 8 8
28 26 28 21 14 12 17 21 9 13 12 8 8 9 12 11 13 13 16 7 9 6 9 6 5 6 6 4 8 5 3 10 6 9 9 5 13 16 7 13 10 17 12 8 5 5 12 8 7 8 7 5 9 11 5 4 4 10 9 10 12 7 6 8 7 7 6 9 8 2 3 6 9 8 6 10 9 5 11 12 10 7 13 11 9 9 8 8
28 27 21 9 15 23 12 4 10 5 2 7 9 12 14 8 17 9 10 10 9 5 6 9 17 9 3 8 4 3 4 5 10 13 10 10 9 9 9 6 5 3 8 3 9 10 4 7 11 4 9 6 10 13 17 10 8 11 8 17 14 17 19 12 13 11 13 13 6 5 5 10 4 4 9 5 4 16 11 14 13 15 14 13 13 13 11 10
32 23 13 11 11 19 21 12 5 5 2 9 12 12 14 21 8 7 8 6 9 5 6 9 12 9 8 4 5 3 7 10 9 7 12 12 10 11 13 12 7 9 5 10 9 6 6 13 12 9 6 3 10 5 8 8 8 2 6 12 12 11 15 7 12 8 6 7 5 5 7 9 11 4 5 4 13 16 14 13 18 17 16 18 19 19 15 12
20 10 5 13 9 9 18 17 8 4 10 11 13 11 18 19 11 8 8 6 3 7 12 11 4 4 5 8 6 8 11 5 4 10 7 11 8 18 8 12 19 18 15 20 12 9 5 10 5 12 3 3 2 2 6 12 14 9 8 9 10 7 18 13 6 4 7 11 10 4 3 4 9 8 7 9 14 10 11 12 15 15 16 20 20 20 19 14
15 15 10 6 9 6 14 16 18 12 11 14 12 16 17 15 12 3 6 3 2 5 6 11 13 2 5 10 9 4 7 8 7 7 9 4 5 4 5 7 7 10 16 19 6 10 15 11 7 5 4 3 3 3 5 8 8 16 8 11 5 7 11 15 10 8 9 8 13 4 8 5 9 14 9 5 10 4 6 7 6 9 17 19 19 21 19 8
16 11 11 9 12 11 17 19 18 10 15 13 16 10 7 11 6 8 3 10 10 5 5 4 15 6 7 6 7 4 3 7 11 9 9 4 11 2 4 8 5 13 16 2 16 9 10 7 5 2 4 8 10 7 11 6 5 7 11 8 12 7 5 8 17 5 7 7 8 5 2 6 8 6 6 2 8 7 3 2 4 5 5 16 13 15 14 10
7 7 14 8 5 17 17 21 15 15 12 14 13 12 13 14 5 4 5 6 5 7 6 11 10 7 7 7 6 4 5 8 4 3 5 10 10 4 4 5 4 9 4 8 9 7 7 13 11 8 2 4 9 13 6 10 13 4 4 8 3 14 7 11 13 11 17 7 5 7 8 9 9 8 3 8 7 13 7 5 5 2 2 7 15 16 14 10
8 10 5 10 3 13 17 14 14 12 15 16 10 16 6 6 9 5 5 3 8 4 10 5 6 9 6 12 6 10 6 6 3 6 5 7 8 5 8 7 5 8 10 5 9 5 7 5 10 9 7 5 9 9 5 5 3 11 14 5 5 10 5 12 5 5 11 16 11 10 5 10 11 10 5 8 8 13 17 16 9 7 4 3 5 9 9 7
6 5 11 8 8 13 11 13 14 15 13 6 4 8 4 10 5 4 5 6 10 9 13 11 9 10 9 5 8 4 10 6 8 8 5 4 5 8 3 6 6 11 8 10 11 5 11 7 13 8 10 8 6 6 3 3 3 5 7 3 9 13 10 7 7 5 7 14 15 15 12 13 16 6 7 5 6 12 10 15 15 12 11 9 7 5 7 11
8 8 9 10 5 7 10 14 10 6 11 8 10 12 10 7 8 8 6 5 9 15 10 14 10 15 12 15 11 9 14 14 13 14 9 8 5 7 4 6 10 4 8 3 3 4 10 10 12 6 7 8 4 4 5 2 12 15 13 8 7 4 11 14 12 10 7 5 10 10 15 12 12 5 6 2 2 9 12 12 14 9 8 9 8 8 5 6
9 8 10 8 11 4 13 8 4 9 9 10 3 5 7 8 6 8 8 5 9 10 10 10 8 6 6 4 2 4 7 11 12 14 8 9 10 8 7 7 8 9 7 5 4 3 10 10 9 6 7 8 7 6 6 11 5 11 11 5 8 9 3 11 11 14 15 4 5 4 8 13 9 5 5 1 3 5 7 5 14 10 8 6 10 10 10 7
5 6 14 15 20 4 12 9 5 5 10 8 3 8 4 9 6 7 9 6 8 8 4 6 8 2 3 4 7 6 5 10 8 7 10 4 8 8 8 8 5 5 7 6 4 9 10 5 10 7 9 6 11 13 12 13 16 11 6 6 3 3 5 3 7 4 13 7 10 14 12 10 5 9 7 9 7 9 8 5 6 15 6 7 9 9 9 7
9 6 6 17 26 18 14 5 7 5 10 7 8 6 6 6 8 15 12 4 5 5 4 7 4 12 8 5 11 8 10 5 11 8 4 3 9 6 7 8 8 5 5 6 7 4 10 4 8 8 13 12 11 10 12 5 4 5 3 8 8 9 6 7 3 6 9 3 6 12 8 11 8 9 10 6 8 9 5 7 4 6 11 11 8 9 9 10
12 9 18 18 25 20 13 5 4 6 5 4 2 7 2 5 7 7 9 8 3 8 14 6 4 5 10 11 12 14 15 15 13 6 7 5 5 8 6 9 8 6 5 11 6 9 8 5 7 10 12 13 9 8 4 7 6 11 5 7 7 4 5 11 11 9 8 6 4 4 13 7 4 8 9 10 8 15 10 6 11 8 6 7 8 9 8 8
6 16 12 17 16 13 9 12 15 12 7 7 6 8 8 5 6 6 12 9 10 5 11 20 13 10 9 9 7 10 8 5 12 11 12 4 6 4 7 8 10 12 7 8 8 11 9 9 3 9 8 7 7 4 1 5 9 4 6 4 4 5 3 7 7 5 7 13 3 5 3 14 3 8 9 10 9 7 7 9 8 8 9 8 6 5 6 6
16 5 5 4 10 13 16 17 18 14 15 11 11 7 7 10 17 10 10 9 3 14 9 11 21 14 9 5 7 11 11 7 11 10 10 10 6 12 12 11 9 9 8 6 8 9 10 6 3 6 4 7 3 6 6 10 6 5 5 5 6 2 7 8 1 1 4 4 14 2 5 9 3 5 7 6 5 4 5 5 3 2 3 5 7 7 5 3
10 6 4 5 9 8 4 8 14 12 22 18 8 13 13 13 13 10 4 6 12 13 9 9 9 14 15 12 8 8 4 8 8 7 9 10 5 6 8 7 4 11 8 5 8 6 13 4 3 6 6 6 6 9 12 16 5 9 10 8 4 8 8 8 6 4 6 7 5 13 15 10 5 7 8 8 5 8 7 8 14 16 9 8 10 10 9 7
13 9 11 12 5 5 9 5 10 20 20 21 13 17 12 11 11 10 16 12 7 7 7 14 6 9 13 16 12 12 3 3 3 5 3 3 9 8 4 4 7 10 8 4 3 3 11 7 4 5 8 4 4 7 12 11 10 10 9 11 7 7 12 8 7 5 10 11 4 10 17 13 8 5 8 6 5 8 21 21 13 11 15 13 12 11 10 10
6 3 4 7 15 15 12 16 11 15 22 25 21 16 12 17 8 9 15 8 9 8 6 5 4 6 9 13 13 6 3 3 3 5 7 3 3 3 6 8 5 5 10 6 5 5 11 5 5 7 9 3 3 7 7 11 15 14 10 11 9 7 10 6 8 5 4 10 4 12 13 7 7 11 5 9 18 20 16 14 16 14 13 14 15 13 12 11
5 4 5 5 16 12 11 11 15 11 17 16 17 13 16 13 12 6 12 11 12 8 5 4 2 12 7 14 10 6 7 5 9 11 9 11 9 8 6 7 2 6 8 5 2 5 4 14 9 7 10 6 5 1 5 7 7 7 7 5 4 10 11 9 8 13 7 5 10 12 5 3 3 6 10 14 16 16 17 13 13 14 12 12 12 12 11 11
Wind_Speed
13 13 13 13 12 13 12 12 12 12 12 12 12 12 12 12 12 11 12 12 12 12 12 12 12 12 12 13 13 14 10 7 9 4 3 14 9 13 8 10 2 6 6 2 0 2 1 1 2 2 1 1 1 1 2 2 2 2 1 3 3 4 1 4 3 3 1 2 6 6 4 6 3 6 1 5 10 9 9 9 3 13 12 12 12 14 14 14
14 13 13 13 14 13 13 13 13 13 13 13 12 12 12 12 11 11 11 11 12 12 11 11 12 12 13 12 12 12 9 5 9 9 18 8 10 12 12 11 6 8 8 3 4 2 1 2 2 1 2 0 1 1 1 1 1 3 1 2 8 3 5 3 2 4 1 6 4 6 0 2 0 1 1 4 0 2 9 7 8 13 14 15 14 14 14 12
14 14 14 13 13 13 13 13 13 13 12 12 13 12 13 12 12 11 11 11 11 11 12 12 12 12 12 12 11 10 8 6 5 8 13 15 17 11 13 14 9 9 7 4 4 5 3 3 1 2 1 0 1 2 1 1 2 3 4 5 6 4 3 4 4 6 4 4 7 5 7 1 3 2 1 2 4 3 10 8 5 11 16 13 12 12 12 11
14 14 14 14 14 14 14 14 13 13 13 13 13 12 12 12 12 11 11 11 11 12 11 12 12 12 12 12 10 6 3 4 2 3 4 4 14 16 12 13 9 8 4 1 6 4 2 2 3 2 1 1 3 0 1 3 1 2 2 5 3 3 2 6 6 9 9 2 3 5 6 6 2 1 1 4 3 1 2 6 13 15 16 13 12 13 12 11
15 15 14 14 14 14 14 14 13 13 13 13 13 13 12 13 12 12 11 11 10 11 11 11 12 12 12 11 9 3 4 2 0 2 2 3 11 17 14 11 9 6 5 3 4 3 3 2 1 2 2 1 2 1 2 2 2 2 6 4 5 0 1 10 6 7 3 3 3 3 4 4 2 1 2 6 3 4 5 6 4 18 19 18 16 13 12 12
15 15 14 15 14 14 14 14 13 13 13 13 13 13 13 12 12 11 12 11 11 11 11 11 11 11 12 12 4 2 0 2 2 3 2 0 10 15 14 10 10 6 3 3 2 2 4 1 2 1 1 1 1 3 3 2 1 3 4 3 6 4 4 4 4 3 3 2 1 0 3 1 3 3 2 4 4 2 3 7 12 16 17 15 14 14 13 12
15 15 14 15 15 15 15 14 13 13 13 13 13 13 12 12 12 11 11 11 11 10 10 11 10 11 10 7 0 1 1 7 3 8 5 3 8 13 12 9 9 5 3 2 1 1 1 3 3 2 1 0 3 3 6 1 1 3 5 1 7 5 8 10 8 8 3 3 6 3 3 4 2 5 0 3 5 1 9 15 15 15 15 15 14 12 14 13
15 15 15 15 15 15 15 14 14 13 13 13 13 12 12 12 12 12 12 11 10 10 10 9 9 10 7 3 1 1 0 7 12 4 5 8 8 11 12 6 7 5 5 6 5 3 4 4 4 2 0 3 2 5 2 2 0 4 4 4 5 3 7 9 9 7 5 6 7 2 4 7 6 2 2 3 3 6 13 16 16 15 14 12 12 13 12 12
15 15 15 15 15 15 15 15 14 14 13 13 12 12 12 11 12 12 12 11 11 10 10 9 8 7 4 1 1 2 5 8 4 4 7 8 8 10 12 4 5 8 4 3 5 6 5 4 2 3 2 0 2 1 3 0 4 5 9 2 4 5 6 7 5 7 6 4 2 1 6 8 3 6 5 2 4 7 12 15 16 15 14 13 12 12 13 12
15 15 15 15 15 15 15 15 15 14 14 13 12 12 12 12 11 11 11 11 10 9 9 8 8 5 3 1 0 1 4 2 3 7 7 9 9 9 5 6 8 6 4 4 4 5 6 3 4 4 1 3 2 4 0 4 4 3 3 4 5 9 6 6 7 8 5 5 4 4 1 5 3 5 2 1 6 10 13 14 13 15 15 14 12 10 8 11
16 16 15 15 15 15 15 15 14 14 14 13 13 12 12 12 12 11 11 10 10 9 8 7 6 3 1 0 2 5 6 4 1 4 8 9 10 9 7 7 8 6 6 4 6 5 2 3 2 1 1 3 0 3 1 3 1 4 3 4 6 6 6 7 3 6 2 3 6 6 5 1 1 2 7 9 7 11 16 13 12 12 13 12 11 9 7 8
17 16 16 15 15 15 15 15 15 14 13 13 13 13 12 12 12 11 10 9 9 8 7 5 3 0 0 1 4 8 3 2 3 3 7 9 6 9 8 8 9 8 8 5 4 5 7 4 4 2 2 2 1 2 3 2 0 4 1 3 7 6 3 2 4 4 5 2 4 4 0 1 1 3 6 11 10 10 14 15 12 11 10 11 9 8 7 7
17 17 16 16 15 15 15 15 14 14 13 13 13 13 12 12 12 11 10 9 8 7 5 4 2 0 0 3 11 9 5 0 4 5 3 2 1 1 4 6 9 6 8 4 5 6 7 4 2 1 3 1 2 2 1 1 3 1 1 1 5 6 5 6 2 1 4 2 5 5 5 7 4 3 9 11 12 10 12 13 11 8 8 10 9 8 7 4
18 17 16 16 15 15 14 14 14 14 14 13 13 13 12 11 11 11 10 9 8 8 6 6 1 1 1 6 6 3 7 3 4 3 3 3 0 1 3 2 4 4 2 5 5 2 2 3 4 3 0 3 3 3 4 4 3 1 2 3 1 3 4 3 0 1 1 3 6 4 6 8 1 6 11 12 15 17 13 11 12 9 7 8 8 8 7 6
18 17 17 16 16 15 14 14 13 13 13 13 13 12 11 12 11 10 10 8 7 6 5 1 1 2 0 8 7 9 10 2 3 5 6 6 4 2 4 3 4 6 5 4 2 1 3 4 1 0 3 2 1 1 4 3 4 2 2 3 4 1 7 8 4 3 4 1 3 5 3 6 6 10 11 11 11 15 14 13 12 10 9 9 8 8 7 7
18 18 17 17 16 16 15 14 12 12 13 13 13 12 13 12 11 9 8 7 5 3 3 1 3 2 1 7 3 1 4 2 5 11 4 7 5 3 4 6 0 3 2 4 4 4 3 1 3 5 3 2 3 3 4 6 3 4 1 2 3 0 5 8 3 2 9 4 2 7 5 1 2 8 12 10 13 12 14 13 11 10 10 10 9 7 7 6
19 18 18 17 17 16 16 14 13 13 13 12 12 13 12 11 9 5 4 3 1 2 3 1 2 2 1 4 3 3 2 4 2 2 3 4 5 4 4 2 2 3 1 5 3 0 2 2 2 1 5 2 2 4 1 4 3 3 1 1 3 2 3 3 8 5 5 5 3 2 3 3 1 8 8 9 12 12 11 13 12 10 10 10 8 7 8 8
19 19 18 18 18 17 16 14 13 12 13 11 10 10 9 7 3 4 1 1 1 2 2 2 2 1 10 3 3 1 2 4 3 6 8 4 6 1 2 1 0 1 0 1 1 1 1 2 3 3 2 3 1 3 4 3 3 0 2 3 6 1 2 6 3 4 1 3 6 2 5 1 1 9 11 11 8 10 13 14 13 11 10 9 9 9 10 9
20 19 18 18 17 17 17 15 13 13 11 10 11 7 1 3 0 1 0 1 1 0 1 1 2 2 2 1 4 6 3 5 1 6 3 3 3 2 0 1 2 1 1 1 3 1 1 1 4 2 2 1 2 6 7 8 5 3 2 3 2 4 4 3 6 5 4 2 3 5 6 3 3 7 7 6 6 7 3 2 6 8 9 8 9 9 10 10
20 20 19 18 17 17 17 15 14 12 10 6 4 1 0 1 0 0 0 1 4 7 7 6 8 3 10 9 6 3 4 1 4 5 3 3 5 3 0 1 1 2 2 3 1 1 0 1 5 5 7 7 5 7 9 4 3 1 1 1 5 5 7 6 5 5 2 2 1 5 1 4 6 9 9 8 7 4 6 7 7 8 9 8 8 10 10 10
19 19 19 18 18 17 16 15 11 9 6 1 4 1 1 0 3 3 3 8 8 9 9 7 13 11 10 2 0 4 4 4 1 2 5 2 4 6 2 3 1 1 3 3 3 1 2 0 7 9 10 10 4 1 2 1 1 3 2 2 5 4 4 5 3 4 5 4 3 3 6 6 7 6 8 5 7 7 11 11 10 10 9 9 11 10 10 7
20 19 19 20 19 18 17 14 12 9 4 2 1 1 2 3 2 1 1 6 5 14 12 16 6 8 6 9 2 2 2 2 8 6 1 7 3 5 2 3 3 6 1 2 2 1 1 6 9 10 6 1 1 2 3 3 2 0 3 3 1 5 4 9 2 4 3 3 2 1 6 4 3 4 7 10 10 8 11 15 16 14 13 10 10 10 8 6
21 21 20 20 19 18 18 15 10 8 2 1 2 1 3 5 1 2 1 3 10 4 11 9 5 11 12 5 3 7 4 4 5 3 3 5 2 7 4 3 4 2 1 3 5 1 4 6 13 1 4 3 1 3 2 1 1 3 2 0 3 4 2 5 5 5 8 4 2 3 6 0 4 1 3 5 6 5 12 11 9 13 16 15 15 14 13 10
21 22 21 20 20 20 19 16 7 0 3 4 2 6 4 2 2 3 1 2 6 5 6 7 9 3 8 4 4 9 5 3 3 5 2 6 7 3 2 4 2 0 4 4 5 6 8 9 3 4 4 5 4 1 2 2 6 2 3 1 2 2 3 4 4 4 4 3 4 6 6 2 4 3 5 5 2 2 3 5 3 3 3 2 2 5 8 13
22 22 21 21 21 22 21 15 2 2 3 1 5 8 9 5 4 5 2 4 2 5 3 1 5 4 5 3 4 5 3 1 6 3 4 8 4 3 4 2 2 4 3 3 3 2 9 11 1 2 3 1 3 2 5 6 5 3 5 6 5 2 4 3 2 3 6 2 4 2 3 1 3 2 6 3 1 2 4 7 9 8 6 6 10 11 7 5
20 20 21 21 21 22 20 1 1 2 2 5 6 4 2 3 2 3 3 2 5 5 3 2 3 4 4 2 4 4 3 3 7 5 7 7 6 5 0 1 3 4 3 4 4 3 6 2 2 5 6 3 4 5 4 6 5 1 5 7 5 4 1 1 2 4 2 3 3 1 4 3 5 0 1 2 6 7 4 6 4 4 6 7 8 9 9 9
21 22 21 20 19 19 6 0 1 4 3 3 2 5 7 2 1 2 3 3 3 3 2 0 1 1 2 3 5 4 1 6 1 4 4 3 7 1 5 5 1 0 3 2 3 4 0 3 3 1 1 2 2 4 4 9 6 4 2 6 4 3 1 1 5 2 2 2 3 6 3 2 1 1 2 3 5 6 5 4 4 7 6 6 6 7 7 8
23 22 20 20 17 11 3 4 6 1 6 3 6 8 8 4 1 3 4 2 1 1 0 2 2 0 0 0 8 6 5 0 3 3 7 5 5 1 3 5 7 6 2 2 3 5 1 4 0 1 1 3 6 6 5 7 5 4 3 6 4 3 4 4 4 3 0 1 4 5 4 2 1 3 3 1 5 2 8 7 7 8 8 5 6 6 6 7
23 22 21 18 18 13 2 3 2 5 3 3 7 8 7 3 4 5 2 0 2 0 2 2 5 1 1 2 4 7 2 0 1 1 2 2 3 4 4 6 5 4 1 4 7 4 2 5 4 3 4 5 5 5 10 10 2 4 5 5 5 5 5 2 2 4 2 4 2 1 2 1 4 5 5 2 1 3 8 11 12 12 11 9 7 5 7 7
24 22 20 17 12 1 1 2 7 8 4 9 9 8 3 2 3 2 2 3 1 0 1 1 1 2 3 3 3 5 5 2 1 1 1 4 5 1 0 3 4 1 3 2 1 8 4 4 6 4 6 7 6 3 6 10 6 4 5 3 3 8 3 2 6 3 5 1 2 2 2 3 1 4 3 1 1 2 4 2 5 4 6 7 5 8 8 9
24 22 18 13 3 3 1 4 9 8 5 5 7 5 2 8 3 2 1 5 2 3 0 1 2 2 3 3 4 3 4 1 1 3 2 1 1 1 1 3 5 4 3 2 3 5 5 3 0 3 2 2 2 3 2 1 2 3 1 3 4 2 7 5 4 5 4 2 3 4 1 1 3 3 5 5 6 4 7 6 10 11 12 9 7 6 6 6
23 22 18 8 6 2 3 5 1 2 3 6 4 4 3 4 3 3 5 3 1 2 2 2 1 0 2 1 3 3 5 2 2 2 4 5 5 5 3 6 4 1 2 2 6 3 3 4 2 7 3 7 2 3 1 2 3 5 6 7 6 2 3 1 3 1 2 4 1 0 2 1 3 3 6 9 5 4 3 3 4 7 6 6 7 8 5 4
22 21 23 13 9 6 9 11 5 6 7 5 3 4 3 4 3 5 4 3 1 1 2 2 3 4 4 1 3 2 1 4 3 4 5 1 7 9 4 4 4 6 4 3 1 1 5 3 5 5 4 1 5 5 1 1 2 5 5 5 5 1 2 2 2 1 2 4 5 1 0 1 3 4 3 6 6 2 3 3 5 2 2 4 4 4 4 5
23 21 11 4 8 12 6 2 5 3 1 3 3 5 7 2 4 5 4 3 4 2 4 2 8 4 1 3 2 1 1 2 5 3 4 4 5 3 4 3 3 1 2 2 3 4 1 1 4 1 1 1 4 6 9 3 5 5 3 9 7 7 5 3 4 3 6 6 2 3 2 2 2 1 5 3 2 3 6 7 7 8 8 9 9 9 7 6
25 17 8 5 5 10 13 7 4 4 1 4 5 4 5 6 2 2 3 3 2 1 3 5 4 3 4 1 2 1 2 1 4 3 4 6 4 3 5 5 4 4 2 3 2 2 3 5 5 5 2 1 4 1 4 5 4 0 2 6 6 5 7 2 4 3 2 2 1 1 1 3 4 2 3 3 3 7 9 9 10 10 8 11 12 11 9 8
15 4 3 4 3 5 10 9 5 3 5 5 5 2 7 6 2 2 1 2 1 2 6 6 1 0 1 3 2 2 4 1 1 4 1 5 3 7 3 3 6 11 6 7 4 2 2 1 2 8 2 2 1 1 3 5 3 2 3 3 4 2 10 5 1 1 4 5 1 0 0 2 4 1 2 4 6 5 7 8 10 9 9 11 10 9 10 7
6 7 2 3 3 3 8 10 9 6 6 6 5 5 6 3 6 1 3 1 0 3 2 4 4 0 0 1 3 3 2 3 3 1 2 0 1 1 1 2 5 5 8 9 2 4 7 4 4 2 2 1 1 2 3 4 3 6 2 5 2 2 6 6 2 3 4 2 3 2 2 2 3 3 4 3 5 3 4 4 4 6 11 10 7 9 11 4
6 3 5 4 6 5 9 11 11 5 6 6 6 6 2 2 2 3 1 5 3 3 1 1 5 4 2 2 2 2 2 3 4 4 2 1 1 0 2 2 2 7 10 1 6 2 4 0 1 1 2 6 5 4 5 3 2 2 4 4 3 1 1 3 6 0 1 1 1 2 1 2 4 2 2 1 4 2 1 1 3 4 2 8 7 9 10 7
3 2 4 3 3 10 8 13 8 8 6 4 4 1 4 4 2 1 3 3 2 1 1 5 3 2 3 2 2 2 2 1 0 1 0 2 2 2 0 2 1 5 2 4 2 1 3 4 3 2 1 2 4 5 1 5 7 2 2 3 1 5 2 4 3 4 6 2 2 2 3 2 3 3 2 4 4 5 4 1 2 1 1 1 5 10 8 6
3 2 2 5 2 5 10 6 6 6 5 7 4 3 2 1 3 3 3 1 2 1 3 1 3 3 1 7 3 5 3 4 2 1 1 2 2 1 2 3 1 4 6 2 3 1 1 1 3 2 3 2 2 1 2 2 1 4 6 2 1 3 2 5 1 1 4 5 4 3 1 4 4 4 2 4 5 8 10 9 4 4 3 3 1 2 5 4
2 1 2 3 3 6 5 4 5 6 4 1 2 2 0 1 1 1 3 4 2 4 5 3 2 3 3 1 4 0 1 3 3 1 1 2 1 0 1 2 2 5 3 4 6 1 3 1 5 2 5 3 2 3 1 0 1 3 3 1 4 5 5 3 3 2 2 5 4 5 3 6 7 3 4 3 3 7 4 6 6 4 5 3 3 3 4 2
2 3 3 5 3 2 1 6 1 0 2 4 3 3 1 4 2 4 3 3 6 3 4 4 5 5 5 6 6 4 3 3 3 4 3 3 2 2 2 2 5 2 3 1 0 2 2 3 5 2 2 3 2 3 4 1 7 7 6 2 4 2 4 6 4 4 3 1 5 4 6 6 4 2 1 0 0 2 6 6 7 4 4 4 3 5 2 1
3 2 5 5 7 2 4 3 1 1 3 3 2 2 1 1 2 2 2 1 2 4 2 3 4 2 3 1 0 1 4 1 2 6 4 5 4 4 4 5 6 6 2 1 1 1 4 2 3 2 4 5 4 4 1 4 2 6 5 2 3 3 1 5 2 6 6 1 2 1 1 3 2 4 3 0 2 4 3 4 8 6 5 3 5 6 7 4
1 1 6 8 13 1 4 2 0 2 4 4 1 3 1 3 2 2 3 2 0 3 1 1 5 1 1 2 3 2 2 2 3 2 3 2 1 4 4 5 3 1 3 1 1 3 1 1 4 2 2 1 4 5 5 6 7 3 2 3 1 1 3 1 4 1 5 3 5 7 4 3 1 5 4 5 5 5 4 4 4 10 4 5 5 5 6 5
3 1 2 7 12 8 4 0 2 1 1 2 3 4 2 1 5 9 4 2 3 2 1 2 0 5 2 1 3 1 5 2 2 5 1 1 0 3 5 3 4 3 2 3 4 1 3 1 2 2 6 5 3 2 3 1 1 2 1 5 4 6 4 2 1 3 3 1 4 3 1 5 4 6 7 4 5 5 3 5 2 3 7 7 5 6 6 6
3 2 5 6 8 8 4 0 1 3 2 2 1 3 0 2 3 4 5 4 2 2 4 2 2 4 3 4 6 8 9 8 6 1 4 3 3 3 3 2 5 3 3 9 4 4 2 1 3 4 5 6 3 3 2 4 3 4 2 3 4 2 2 6 5 3 3 3 1 2 6 4 2 5 6 7 3 5 6 4 6 5 4 4 5 6 5 5
1 5 3 6 3 5 4 5 8 6 2 3 1 2 5 3 2 2 8 2 6 2 3 10 5 4 4 3 3 5 4 3 8 5 6 3 2 1 4 5 7 8 4 4 5 4 3 4 1 6 5 3 2 2 0 3 5 2 2 1 2 2 1 4 2 1 3 7 0 1 2 6 1 5 6 6 4 4 4 2 1 1 1 1 2 3 4 4
5 1 2 1 2 5 7 8 10 8 9 5 3 2 3 5 8 2 5 4 1 5 3 5 12 7 2 1 2 4 6 3 5 4 6 4 3 8 5 7 5 6 4 2 4 3 3 2 1 3 3 5 2 4 4 6 4 3 3 1 3 1 4 4 0 0 2 2 6 1 3 4 2 4 5 3 3 2 3 3 2 1 2 3 4 4 3 2
4 0 0 2 3 4 1 4 6 6 12 11 1 6 7 8 7 4 1 2 6 6 4 3 5 9 8 6 4 3 3 2 3 3 3 5 3 4 3 4 2 8 5 2 3 2 5 0 2 3 3 4 3 3 6 11 3 5 5 4 2 6 5 5 4 2 4 4 4 9 10 6 3 4 5 4 3 4 3 4 8 10 6 6 7 7 6 5
4 3 5 5 1 2 5 3 4 12 10 12 4 10 4 6 7 6 6 5 2 3 3 7 3 5 9 10 7 5 1 2 1 1 1 2 5 4 1 1 3 5 4 1 0 1 4 1 3 2 4 2 3 4 9 8 5 6 5 5 4 5 8 6 4 4 7 6 2 6 11 7 4 3 4 4 3 4 13 14 9 7 9 9 8 7 7 6
2 1 0 2 6 7 5 6 4 8 8 12 9 8 5 11 5 5 6 4 4 2 2 3 3 3 4 8 8 4 1 1 2 3 3 1 1 1 2 3 1 3 6 3 2 2 5 1 2 3 4 0 1 4 5 8 10 9 5 7 6 4 6 3 3 3 1 6 3 8 8 2 3 6 4 6 11 13 10 9 10 9 8 9 10 9 8 7
1 2 2 1 4 6 4 6 7 4 7 5 6 7 5 9 7 3 3 6 8 5 1 2 0 7 4 9 7 4 4 3 6 7 5 6 5 5 4 3 0 0 2 1 1 2 1 5 3 3 5 2 1 0 4 5 4 3 3 3 2 6 6 5 4 7 4 2 5 7 3 1 2 3 5 9 10 11 11 8 8 9 8 8 8 8 7 7
Wind_Direction
319 318 317 315 313 311 311 311 311 310 310 310 311 313 313 313 320 318 315 316 318 317 319 317 315 314 317 321 321 321 348 334 310 303 227 241 197 218 176 214 114 184 171 159 342 1 358 20 23 329 43 96 245 121 241 130 175 89 158 124 265 202 146 221 193 171 192 259 297 334 330 5 12 342 52 57 46 78 70 59 43 47 58 83 97 106 118 132
318 317 316 318 314 311 309 308 309 310 311 312 312 313 312 313 316 315 310 315 318 314 316 319 316 318 322 317 323 335 348 304 293 270 239 221 191 198 208 215 145 126 135 120 145 163 101 28 11 80 73 350 302 225 130 231 143 138 125 120 232 174 235 179 212 271 291 276 274 295 298 280 250 174 294 80 48 53 67 55 74 85 84 93 105 118 124 137
320 316 316 317 312 309 308 307 306 306 306 306 306 309 311 312 312 313 316 317 314 316 318 318 321 321 314 320 332 354 340 308 276 268 260 233 219 193 208 222 179 158 171 151 197 144 148 162 122 74 29 66 330 214 4 252 152 232 130 238 245 207 235 247 228 252 212 246 293 316 308 106 288 3 297 130 118 69 121 130 64 108 119 119 121 121 130 141
320 317 319 314 312 309 307 305 305 308 307 306 305 305 307 306 310 312 314 315 316 317 318 316 318 321 322 321 332 349 351 290 301 248 258 212 190 198 200 213 182 182 185 65 154 147 144 82 62 90 64 80 290 55 321 262 120 280 139 215 237 212 232 263 218 236 254 184 270 301 299 323 292 290 111 139 82 336 248 193 154 154 138 134 133 135 140 141
320 317 319 314 310 308 305 303 306 306 303 301 303 305 304 308 310 310 310 309 309 311 312 315 318 322 323 320 343 30 348 27 48 233 244 143 169 189 195 188 164 163 183 136 86 79 102 109 90 37 83 257 325 28 253 278 200 100 213 205 223 250 265 261 247 246 252 232 286 304 315 279 297 71 94 143 158 235 207 194 150 142 144 144 147 146 142 144
319 318 317 313 310 305 304 303 306 303 301 300 299 301 302 304 305 305 306 308 310 313 316 313 315 323 321 330 323 106 54 80 285 271 43 154 166 181 188 163 157 138 140 87 124 117 103 43 82 55 27 83 216 150 268 224 121 238 301 244 230 219 231 270 273 242 195 253 235 41 231 353 25 318 134 146 176 254 244 121 143 146 148 139 134 139 143 148
321 318 318 312 309 305 303 302 304 301 301 299 297 297 299 301 302 302 301 305 308 311 310 310 315 321 337 351 52 95 92 271 306 254 59 105 164 168 167 147 133 121 127 135 126 120 115 110 107 195 104 79 279 190 249 225 206 191 245 264 282 212 225 256 266 258 253 215 251 209 355 305 304 304 93 51 318 138 113 117 128 131 135 138 138 147 147 152
322 321 317 312 307 304 302 303 302 300 299 298 297 297 298 297 298 300 302 303 303 302 304 308 317 319 8 6 343 338 41 253 246 249 120 95 114 139 135 119 132 126 138 183 150 147 135 133 161 152 150 158 224 167 261 181 206 196 260 247 257 276 243 259 257 267 247 243 256 359 290 259 217 228 57 10 39 112 114 120 126 130 133 137 141 148 152 154
327 323 318 312 307 305 303 303 301 298 297 296 297 298 295 295 296 299 302 300 300 300 302 308 313 325 61 99 78 342 264 234 233 135 108 99 110 119 129 131 150 142 170 161 172 176 140 224 125 183 233 291 209 247 269 196 308 211 226 247 287 278 276 260 282 264 232 246 197 141 227 251 211 116 49 315 83 111 116 119 127 130 138 146 151 156 160 160
329 325 320 314 310 307 307 301 298 296 296 295 297 293 291 290 289 288 291 295 295 295 294 301 311 345 48 47 296 27 263 186 64 133 119 116 115 126 134 130 149 150 148 197 161 157 181 194 173 194 156 257 204 236 163 137 238 167 236 223 249 265 272 278 233 255 208 209 186 188 227 256 212 118 256 99 139 124 116 124 133 137 145 151 154 164 167 160
333 329 324 318 314 310 304 300 296 296 297 298 293 289 287 285 285 288 291 294 294 293 297 302 297 26 31 305 132 218 261 13 123 128 127 125 124 139 179 154 161 159 166 177 191 183 168 159 181 149 141 227 29 279 179 227 187 288 260 319 282 277 265 251 307 269 137 255 192 180 229 269 3 65 181 163 151 140 128 135 140 142 146 151 156 162 170 170
335 333 328 324 317 311 306 301 299 300 299 294 290 290 289 289 289 290 288 289 292 296 304 294 346 87 183 149 213 225 297 326 129 139 137 139 157 189 169 163 167 170 167 175 215 204 213 169 142 85 212 43 316 302 289 235 129 263 332 326 292 349 324 296 213 240 163 253 155 159 40 348 114 219 192 150 144 145 138 143 143 144 144 150 158 161 176 176
336 335 333 329 321 316 311 307 305 299 295 293 291 290 288 288 288 287 287 285 286 296 293 289 305 158 70 315 229 234 288 50 116 122 132 170 50 135 168 166 175 168 176 165 206 211 207 154 120 154 234 145 230 233 204 78 278 15 63 174 332 349 331 276 229 206 152 243 154 131 281 262 264 264 156 151 145 142 142 145 146 142 147 157 163 169 168 159
338 336 334 331 328 322 315 309 302 300 297 297 295 291 288 286 287 286 283 279 280 280 262 250 104 17 156 244 275 230 237 187 102 111 205 153 50 218 149 174 179 188 198 204 252 231 148 139 150 220 156 173 250 270 7 335 15 276 264 71 255 3 271 298 11 359 288 237 166 125 230 270 260 203 168 161 156 154 154 151 146 148 149 158 168 170 171 178
338 337 335 334 332 327 318 314 311 307 304 297 294 289 288 290 286 286 284 287 282 260 242 172 65 118 37 267 264 267 235 87 173 225 177 156 181 109 184 186 197 204 213 214 234 165 129 128 110 322 261 232 192 355 319 4 351 350 33 295 321 127 280 289 254 216 214 292 195 127 225 251 209 191 184 165 165 155 152 156 153 155 159 165 167 168 170 182
338 337 336 335 334 331 324 319 313 307 301 299 295 293 291 287 287 285 283 271 262 234 79 34 213 197 349 291 253 130 93 146 235 216 210 161 179 191 191 165 183 217 207 264 225 264 298 210 196 207 227 355 54 87 35 19 337 352 81 260 289 331 262 343 316 244 215 168 331 165 209 35 273 205 176 173 162 162 152 159 160 163 161 163 167 169 165 164
338 337 336 335 336 334 331 323 315 310 307 303 301 294 290 283 281 275 273 260 25 183 178 152 122 199 303 233 295 343 233 230 213 131 166 194 187 174 108 99 223 265 269 282 303 196 290 163 310 45 24 117 158 91 355 17 319 315 5 229 209 291 310 307 292 282 218 167 208 241 191 218 237 172 180 171 165 155 160 165 167 166 168 169 161 169 169 175
337 336 336 335 334 336 332 326 317 312 310 307 298 293 281 260 259 319 20 54 160 174 252 251 216 319 277 314 305 258 274 289 164 183 187 186 180 193 129 164 346 102 21 317 355 205 269 209 39 194 3 360 51 57 117 226 198 225 309 359 325 327 224 239 301 273 19 198 191 197 209 307 247 166 176 172 158 160 173 176 173 167 162 162 170 174 179 181
338 335 335 334 333 334 334 330 322 317 317 317 316 313 323 130 161 170 185 165 115 23 355 226 131 149 139 199 275 307 284 220 56 113 220 179 195 166 57 83 87 131 303 85 270 107 347 89 26 38 241 0 209 152 163 217 166 208 189 218 213 290 287 271 243 265 240 245 187 148 205 198 138 165 154 151 160 177 177 134 144 156 168 172 176 178 182 187
337 335 333 333 332 331 333 331 325 321 326 332 359 346 321 4 6 347 266 242 228 215 245 202 205 272 304 282 276 246 271 261 162 226 160 183 112 147 230 113 16 70 111 185 270 154 115 169 213 219 222 216 218 186 202 209 147 164 227 209 256 259 276 263 263 272 262 122 213 203 131 137 181 170 156 156 148 134 146 158 164 176 173 179 186 189 187 187
334 334 332 331 330 330 330 333 327 322 335 9 316 331 331 173 11 297 239 231 222 235 239 243 190 210 231 280 199 32 20 319 255 245 203 118 95 108 249 119 99 236 243 195 156 288 76 225 254 223 219 211 199 230 304 346 161 214 249 213 268 237 278 275 303 334 330 123 333 122 123 173 175 151 159 147 141 179 167 173 178 181 185 188 186 187 193 182
334 332 332 331 329 328 328 326 330 326 39 72 40 210 235 210 223 209 59 306 267 223 228 239 231 258 264 261 271 117 77 275 314 282 284 142 189 149 279 130 146 200 282 108 15 11 56 210 243 229 231 138 124 129 168 195 269 14 181 221 3 283 249 292 312 321 327 85 318 158 131 126 134 179 165 168 191 190 177 178 182 175 184 188 192 192 178 165
332 332 331 331 328 324 324 319 317 322 322 70 198 221 232 229 104 27 57 268 279 212 214 225 233 242 261 262 229 143 158 201 238 285 206 139 112 190 159 130 190 186 91 103 169 170 285 273 251 195 139 159 232 165 144 114 86 190 252 45 258 247 10 306 297 351 353 54 181 155 116 267 320 321 257 221 189 203 187 189 183 181 178 183 189 187 182 180
331 330 330 330 329 326 319 316 317 74 206 210 241 219 241 53 17 340 136 243 289 299 207 210 199 200 226 214 200 158 155 236 145 266 175 135 164 184 114 162 145 170 221 169 170 175 217 240 171 94 119 153 229 268 222 283 285 280 216 161 225 286 241 166 271 345 334 4 62 62 50 355 9 115 212 266 27 103 208 167 168 210 225 236 203 187 186 182
330 330 329 329 330 327 318 314 62 225 182 185 241 248 259 274 259 199 87 323 343 280 274 280 172 224 229 101 109 142 213 284 210 203 169 156 163 94 219 186 118 234 197 153 118 217 272 267 216 225 172 147 174 256 228 172 238 311 241 186 198 193 257 286 322 29 29 349 8 106 57 293 296 300 206 237 83 153 191 191 198 187 188 174 182 192 183 181
326 325 329 330 330 331 312 351 324 329 325 264 240 275 303 350 242 171 93 72 297 269 333 270 149 271 144 204 152 148 97 249 216 204 166 191 159 144 78 203 139 230 188 144 182 202 223 304 126 259 244 170 167 205 237 163 189 107 266 192 193 184 181 333 52 75 359 95 333 27 130 228 329 239 154 245 198 188 161 216 221 184 202 195 194 183 180 180
325 328 328 331 331 338 10 287 332 283 334 299 301 318 327 11 47 85 51 338 353 248 162 261 97 281 224 212 144 108 80 262 312 140 169 125 177 175 132 232 19 211 160 154 44 283 330 310 355 11 200 154 135 232 233 148 124 223 249 125 105 93 141 206 101 112 189 239 300 34 91 135 343 295 274 304 193 191 209 224 210 208 214 219 200 184 178 177
324 325 327 326 326 336 214 313 349 315 228 262 345 328 324 347 100 45 82 355 331 267 156 240 213 342 282 113 146 164 202 105 105 249 187 174 109 308 184 200 187 183 175 101 215 255 150 311 131 273 150 143 197 205 189 150 142 215 183 159 155 164 187 129 92 104 65 122 272 330 352 61 251 265 316 30 131 223 223 217 223 218 210 213 211 184 170 171
321 323 324 323 322 315 240 184 159 242 235 321 312 319 327 26 91 110 125 74 248 132 4 92 292 69 208 79 184 205 258 283 122 265 63 68 185 134 217 212 170 179 292 150 206 291 272 215 232 158 135 213 232 215 161 160 172 278 155 83 78 76 67 84 99 84 349 70 278 271 352 156 289 283 343 350 100 201 226 212 212 212 205 197 194 188 170 168
320 319 320 321 325 33 136 210 232 237 323 317 310 309 348 56 34 38 359 254 318 354 180 243 157 227 123 148 212 214 228 297 154 45 105 152 213 6 47 125 131 126 234 8 218 224 260 313 163 136 198 206 209 214 174 175 190 121 85 76 36 42 20 13 62 84 66 32 256 253 304 130 293 272 231 72 157 200 237 281 265 228 216 195 193 185 180 174
317 315 314 317 278 258 163 279 253 251 248 287 300 332 64 41 122 110 214 232 296 242 323 50 244 24 123 167 220 233 216 191 327 113 79 60 37 51 33 15 44 56 35 357 290 311 335 339 97 245 183 111 151 117 29 44 21 129 77 115 76 11 11 25 346 39 92 268 260 264 239 85 175 297 313 233 272 255 206 217 196 201 201 191 173 185 189 166
314 311 302 297 217 282 197 226 255 55 347 326 14 50 83 236 7 164 216 345 66 287 76 299 290 96 246 279 351 202 184 182 216 119 141 174 167 177 234 176 168 104 320 244 250 358 293 254 251 311 218 155 110 119 297 37 18 85 83 49 113 237 45 244 3 295 150 173 227 205 136 43 237 213 276 305 294 312 212 201 236 187 175 168 172 176 162 152
314 308 302 279 235 217 243 248 310 321 336 350 56 48 72 107 219 251 272 322 238 40 293 225 295 317 287 151 233 230 304 198 246 211 134 108 148 215 210 178 185 146 199 248 214 19 262 287 338 284 316 156 134 148 246 130 359 102 138 135 97 95 48 205 281 305 325 294 264 299 10 241 249 304 328 319 319 278 71 61 78 33 131 142 135 132 125 136
312 311 304 230 197 212 221 198 230 268 357 38 78 42 56 97 242 226 229 244 247 322 318 344 326 325 238 188 247 145 322 262 164 228 145 171 151 208 267 263 140 299 135 147 178 192 76 345 292 147 225 273 140 170 181 170 163 217 136 145 182 146 158 211 187 183 200 182 254 290 64 232 88 253 339 330 320 56 54 74 77 84 91 86 75 61 56 69
313 299 261 272 238 232 222 200 185 190 89 75 60 94 146 229 244 196 227 277 269 292 337 320 337 333 315 280 276 182 156 288 192 133 167 126 209 172 186 224 227 120 129 137 251 79 180 195 258 224 247 134 216 264 119 97 73 166 153 82 96 225 147 148 203 144 179 147 39 173 206 174 114 271 316 294 78 60 71 64 73 78 83 81 70 59 38 21
316 301 203 260 215 253 186 188 180 167 120 84 101 147 206 190 207 190 243 191 342 19 314 339 33 37 257 316 302 68 36 108 282 122 310 180 203 190 219 199 185 182 150 173 196 177 23 299 268 316 329 137 206 174 269 118 178 256 83 169 209 161 106 95 56 80 88 56 226 248 27 359 292 359 0 336 62 56 81 88 98 96 88 87 90 91 64 19
323 327 359 253 250 202 157 156 163 145 106 112 124 231 203 271 200 201 279 0 126 307 41 46 302 81 171 243 282 332 302 53 331 77 241 262 7 292 240 272 180 191 192 142 296 185 142 233 297 58 40 16 43 152 97 70 144 91 165 227 157 113 113 120 154 336 58 139 251 23 211 160 85 207 336 9 66 7 51 56 76 115 116 114 133 120 124 173
319 304 253 268 243 146 147 149 142 119 96 118 190 220 189 202 259 186 325 357 360 36 52 132 271 133 272 159 254 215 305 114 279 41 251 238 195 217 295 266 270 188 209 221 141 254 114 31 297 266 235 297 357 55 22 333 74 148 211 179 95 250 185 333 95 114 110 235 272 4 231 246 161 228 337 193 155 179 98 66 99 85 42 121 115 118 138 155
265 328 346 295 324 140 145 153 138 120 92 134 213 172 258 223 259 315 329 308 221 261 219 237 180 274 171 230 229 73 135 172 258 113 92 295 120 234 164 201 259 69 40 167 95 214 48 160 286 300 121 313 28 60 65 298 333 43 59 22 2 97 152 129 191 166 117 218 85 274 51 202 222 213 204 237 234 181 150 152 181 104 76 327 147 147 143 148
357 20 323 317 30 123 149 147 91 79 93 180 204 215 214 231 265 259 263 260 292 120 239 244 217 263 270 222 189 157 202 145 105 295 106 255 118 271 2 328 309 2 52 5 136 138 73 107 182 280 287 38 38 336 180 171 19 342 27 339 2 41 219 109 36 83 160 160 171 155 343 283 266 213 184 235 211 203 169 175 177 146 114 100 55 94 113 114
290 86 277 316 70 141 149 69 95 156 156 244 145 213 294 244 308 278 252 255 256 256 231 232 234 234 216 297 284 220 163 142 130 111 213 318 117 357 321 28 306 15 353 18 62 12 88 80 183 304 33 33 212 248 193 178 180 138 149 137 174 117 121 127 221 14 82 106 192 125 222 274 269 180 212 236 227 177 190 153 147 146 143 133 113 56 41 44
33 30 320 9 6 269 68 107 36 226 109 156 205 175 229 213 272 264 268 250 193 258 234 238 254 235 245 243 200 186 147 171 161 150 219 168 279 152 252 106 78 85 90 61 278 262 146 142 94 102 158 174 183 46 8 50 101 105 106 64 143 139 97 97 133 246 30 65 117 150 125 261 243 272 295 114 259 209 159 160 145 136 130 133 111 99 64 284
55 224 261 310 353 176 65 50 302 102 181 234 303 271 226 298 228 245 305 272 288 212 237 198 220 199 250 219 298 112 142 130 202 182 182 164 205 229 191 80 104 48 76 340 11 282 86 64 77 325 327 316 330 303 9 76 69 32 13 43 68 20 182 169 174 181 136 176 91 36 97 244 289 341 310 209 119 101 83 114 141 129 130 148 134 138 152 179
269 272 322 334 342 104 73 128 221 311 316 315 250 256 227 211 202 301 230 274 206 333 273 324 337 22 294 71 62 58 2 125 339 131 132 190 190 278 333 64 20 121 96 238 110 262 60 304 124 104 40 347 340 342 5 348 47 75 19 334 4 121 79 157 110 77 98 206 165 118 184 270 287 359 18 66 84 94 102 102 142 136 154 152 151 153 157 159
293 281 50 318 346 43 98 178 129 226 243 255 300 293 271 269 221 222 214 24 2 302 10 354 265 322 341 65 72 23 39 85 145 353 115 122 264 48 24 22 117 91 140 195 169 63 86 179 91 141 165 164 171 196 234 296 298 306 5 341 2 47 7 43 77 10 112 251 96 120 195 253 287 14 21 51 85 72 75 121 104 150 150 160 168 162 158 146
11 31 315 350 5 17 47 308 333 339 315 348 328 266 263 285 328 5 113 100 101 54 60 294 338 52 2 27 37 21 4 5 58 342 33 356 342 25 346 27 64 100 64 82 45 72 125 92 88 156 152 180 200 193 258 112 41 64 301 5 330 18 49 94 104 83 171 188 91 233 162 156 47 354 355 344 345 134 141 150 154 168 189 178 170 159 153 146
66 53 342 341 342 39 349 9 11 15 295 216 63 349 7 344 292 15 10 89 6 14 52 41 359 38 335 47 96 57 11 338 353 61 9 335 297 299 346 56 54 28 44 57 8 80 58 56 17 105 68 155 177 103 166 111 119 162 121 8 338 28 61 80 103 173 158 91 301 273 294 115 19 345 345 331 324 349 357 5 350 349 357 176 167 131 115 113
52 303 66 297 79 349 7 358 353 321 359 34 50 14 18 28 36 52 322 35 31 32 84 351 28 37 13 43 96 73 337 18 27 16 317 0 349 347 37 8 61 328 37 60 31 103 127 105 287 73 40 55 62 101 98 71 57 83 76 36 46 323 82 95 84 313 118 145 193 203 87 79 354 2 326 315 309 46 28 1 329 276 352 9 32 32 31 44
109 271 239 323 78 351 154 253 349 330 26 6 143 30 38 34 37 15 3 319 24 4 46 91 6 10 30 28 87 104 21 74 5 330 46 324 6 340 26 339 351 13 45 63 37 134 91 136 208 109 109 61 59 110 114 100 108 56 27 17 22 77 64 84 72 18 104 112 128 114 88 72 8 331 344 345 343 63 63 49 39 32 10 17 43 36 24 18
14 29 327 349 40 45 348 337 20 28 28 356 40 2 27 20 41 6 24 44 44 353 16 84 71 40 42 49 50 81 8 104 117 50 316 42 326 33 27 134 290 327 29 68 59 316 104 246 129 101 81 46 5 35 87 119 116 81 38 40 50 85 70 43 72 44 74 66 59 94 81 60 356 0 3 343 3 62 48 39 35 32 29 32 37 28 19 10
273 189 258 14 27 348 347 15 32 58 28 358 20 351 15 4 7 7 61 13 74 72 17 124 158 86 39 57 61 85 206 189 212 224 237 176 82 259 72 277 55 330 349 0 20 326 70 161 54 68 90 75 359 69 92 96 90 86 45 14 8 35 68 355 49 313 132 154 147 90 73 56 317 350 356 33 50 48 48 33 33 27 27 37 40 30 27 16
332 300 40 111 72 345 22 2 25 54 39 341 344 347 357 340 351 30 79 40 34 31 63 143 171 84 21 41 33 340 300 238 251 252 241 231 233 262 238 239 79 55 305 44 266 66 89 129 111 89 97 245 272 6 146 97 58 28 338 317 11 82 115 116 62 35 30 118 73 111 176 254 275 308 59 40 57 53 45 28 23 24 25 38 42 38 33 39